Tracking 21076 objects as of 9-Aug-2020
HD Live streaming from Space Station
objects crossing your sky now
Track the most recent launched group of Starlink satellites

NAVSTAR 78 (USA 293)

Track NAVSTAR 78 (USA 293) now!
NAVSTAR 78 (USA 293) is classified as:


NORAD ID: 44506
Int'l Code: 2019-056A
Perigee: 20,168.8 km
Apogee: 20,210.7 km
Inclination: 55.3 °
Period: 718.0 minutes
Semi major axis: 26560 km
RCS: Unknown
Launch date: August 22, 2019
Source: United States (US)
Launch site: AIR FORCE EASTERN TEST RANGE (AFETR)
aabbcc
Your satellite tracking list
Your tracking list is empty




NASA's NSSDC Master Catalog

Two Line Element Set (TLE):
1 44506U 19056A   20221.00696465 -.00000068  00000-0  00000+0 0  9997
2 44506  55.2757  56.1699 0007893 165.9672  24.9405  2.00559200  7151
Source of the keplerian elements: AFSPC